2023/01/25 00:00:00,66.2,-7.2
2023/01/25 00:10:00,66.8,-7.5
2023/01/25 00:20:00,67.2,-7.9
2023/01/25 00:30:00,67.9,-7.8
2023/01/25 00:40:00,68.3,-7.8
2023/01/25 00:50:00,69.3,-7.6
2023/01/25 01:00:00,70.6,-7.6
2023/01/25 01:10:00,71.5,-7.7
2023/01/25 01:20:00,72.3,-7.6
2023/01/25 01:30:00,72.5,-7.7
2023/01/25 01:40:00,72.3,-7.9
2023/01/25 01:50:00,73.2,-7.7
2023/01/25 02:00:00,73.8,-7.6
2023/01/25 02:10:00,74.3,-7.7
2023/01/25 02:20:00,74.3,-7.9
2023/01/25 02:30:00,74.5,-7.5
2023/01/25 02:40:00,75.5,-8.1
2023/01/25 02:50:00,76.1,-7.9
2023/01/25 03:00:00,76.2,-8.0
2023/01/25 03:10:00,76.2,-7.9
2023/01/25 03:20:00,76.2,-7.9
2023/01/25 03:30:00,76.4,-8.2
2023/01/25 03:40:00,76.7,-7.7
2023/01/25 03:50:00,76.9,-7.9
2023/01/25 04:00:00,77.9,-7.4
2023/01/25 04:10:00,78.1,-7.8
2023/01/25 04:20:00,78.4,-7.7
2023/01/25 04:30:00,80.1,-7.8
2023/01/25 04:40:00,81.1,-7.9
2023/01/25 04:50:00,81.9,-7.7
2023/01/25 05:00:00,83.6,-7.9
2023/01/25 05:10:00,85.4,-7.6
2023/01/25 05:20:00,86.3,-7.6
2023/01/25 05:30:00,86.8,-7.4
2023/01/25 05:40:00,88.1,-7.5
2023/01/25 05:50:00,89.9,-7.4
2023/01/25 06:00:00,91.2,-7.7
2023/01/25 06:10:00,91.9,-7.5
2023/01/25 06:20:00,92.6,-7.3
2023/01/25 06:30:00,93.4,-7.5
2023/01/25 06:40:00,94.1,-7.4
2023/01/25 06:50:00,93.7,-7.3
2023/01/25 07:00:00,93.1,-7.3
2023/01/25 07:10:00,92.7,-7.4
2023/01/25 07:20:00,92.2,-7.8
2023/01/25 07:30:00,91.8,-7.7
2023/01/25 07:40:00,91.6,-7.6
2023/01/25 07:50:00,91.5,-7.4
2023/01/25 08:00:00,91.6,-8.0
2023/01/25 08:10:00,91.8,-7.5
2023/01/25 08:20:00,92.1,-7.5
2023/01/25 08:30:00,92.4,-7.4
2023/01/25 08:40:00,93.2,-7.4
2023/01/25 08:50:00,94.3,-7.6
2023/01/25 09:00:00,95.8,-7.1
2023/01/25 09:10:00,95.9,-6.5
2023/01/25 09:20:00,95.6,-6.4
2023/01/25 09:30:00,95.5,-6.9
2023/01/25 09:40:00,95.9,-6.3
2023/01/25 09:50:00,95.4,-6.0
2023/01/25 10:00:00,95.0,-5.8
2023/01/25 10:10:00,94.7,-5.4
2023/01/25 10:20:00,94.4,-5.8
2023/01/25 10:30:00,94.1,-5.9
2023/01/25 10:40:00,93.7,-5.8
2023/01/25 10:50:00,93.4,-5.6
2023/01/25 11:00:00,93.2,-5.4
2023/01/25 11:10:00,93.0,-5.9
2023/01/25 11:20:00,92.8,-5.9
2023/01/25 11:30:00,92.7,-5.8
2023/01/25 11:40:00,93.0,-6.0
2023/01/25 11:50:00,93.1,-4.9
2023/01/25 12:00:00,92.5,-4.5
2023/01/25 12:10:00,92.3,-4.6
2023/01/25 12:20:00,91.9,-3.9
2023/01/25 12:30:00,91.7,-4.5
2023/01/25 12:40:00,91.6,-4.4
2023/01/25 12:50:00,91.3,-3.5
2023/01/25 13:00:00,91.0,-4.4
2023/01/25 13:10:00,91.0,-5.1
2023/01/25 13:20:00,90.9,-4.4
2023/01/25 13:30:00,90.5,-4.1
2023/01/25 13:40:00,90.3,-4.1
2023/01/25 13:50:00,90.0,-3.5
2023/01/25 14:00:00,89.9,-4.4
2023/01/25 14:10:00,89.5,-4.1
2023/01/25 14:20:00,89.4,-4.6
2023/01/25 14:30:00,89.1,-4.6
2023/01/25 14:40:00,89.1,-4.8
2023/01/25 14:50:00,88.8,-4.8
2023/01/25 15:00:00,88.5,-4.7
2023/01/25 15:10:00,88.1,-4.3
2023/01/25 15:20:00,87.9,-4.6
2023/01/25 15:30:00,88.0,-4.6
2023/01/25 15:40:00,88.0,-4.4
2023/01/25 15:50:00,87.6,-4.5
2023/01/25 16:00:00,87.4,-4.7
2023/01/25 16:10:00,87.3,-4.6
2023/01/25 16:20:00,87.0,-4.8
2023/01/25 16:30:00,86.9,-4.8
2023/01/25 16:40:00,86.6,-4.7
2023/01/25 16:50:00,86.3,-4.8
2023/01/25 17:00:00,86.2,-5.0
2023/01/25 17:10:00,86.1,-4.9
2023/01/25 17:20:00,86.1,-4.9
2023/01/25 17:30:00,86.1,-5.1
2023/01/25 17:40:00,85.8,-5.1
2023/01/25 17:50:00,85.5,-4.9
2023/01/25 18:00:00,85.1,-4.9
2023/01/25 18:10:00,85.2,-5.2
2023/01/25 18:20:00,85.0,-5.2
2023/01/25 18:30:00,84.8,-5.0
2023/01/25 18:40:00,85.1,-4.9
2023/01/25 18:50:00,85.3,-5.2
2023/01/25 19:00:00,84.9,-4.8
2023/01/25 19:10:00,84.7,-5.0
2023/01/25 19:20:00,84.6,-5.2
2023/01/25 19:30:00,84.6,-5.0
2023/01/25 19:40:00,84.6,-5.1
2023/01/25 19:50:00,84.2,-5.1
2023/01/25 20:00:00,84.1,-5.0
2023/01/25 20:10:00,83.9,-5.2
2023/01/25 20:20:00,83.8,-5.1
2023/01/25 20:30:00,83.7,-5.1
2023/01/25 20:40:00,83.9,-4.9
2023/01/25 20:50:00,83.9,-4.8
2023/01/25 21:00:00,83.7,-5.1
2023/01/25 21:10:00,83.5,-5.0
2023/01/25 21:20:00,83.3,-5.1
2023/01/25 21:30:00,83.1,-5.2
2023/01/25 21:40:00,82.7,-4.9
2023/01/25 21:50:00,82.6,-5.2
2023/01/25 22:00:00,82.9,-5.2
2023/01/25 22:10:00,82.9,-5.2
2023/01/25 22:20:00,82.6,-5.1
2023/01/25 22:30:00,82.4,-5.4
2023/01/25 22:40:00,82.3,-5.5
2023/01/25 22:50:00,82.1,-5.2
2023/01/25 23:00:00,81.9,-5.4
2023/01/25 23:10:00,81.8,-5.6
2023/01/25 23:20:00,81.8,-6.2
2023/01/25 23:30:00,81.6,-6.6
2023/01/25 23:40:00,81.4,-6.7
2023/01/25 23:50:00,81.3,-7.4
